TimeEST,TemperatureF,Dew PointF,Humidity,Sea Level PressureIn,VisibilityMPH,Wind Direction,Wind SpeedMPH,Gust SpeedMPH,PrecipitationIn,Events,Conditions,WindDirDegrees,DateUTC
12:15 AM,19.4,17.6,93,29.93,10.0,Calm,Calm,-,N/A,,Partly Cloudy,0,2012-12-29 05:15:00
12:35 AM,21.2,17.6,86,29.92,10.0,East,4.6,-,N/A,,Clear,100,2012-12-29 05:35:00
12:55 AM,19.4,15.8,86,29.90,10.0,ENE,5.8,-,N/A,,Partly Cloudy,70,2012-12-29 05:55:00
1:15 AM,19.4,15.8,86,29.88,10.0,East,5.8,-,N/A,,Partly Cloudy,80,2012-12-29 06:15:00
1:35 AM,19.4,15.8,86,29.85,10.0,ENE,8.1,-,N/A,,Mostly Cloudy,60,2012-12-29 06:35:00
1:55 AM,19.4,17.6,93,29.84,10.0,ENE,10.4,-,N/A,,Mostly Cloudy,70,2012-12-29 06:55:00
2:15 AM,19.4,17.6,93,29.85,10.0,ESE,8.1,-,N/A,,Overcast,110,2012-12-29 07:15:00
2:35 AM,21.2,17.6,86,29.85,10.0,East,4.6,-,N/A,,Overcast,90,2012-12-29 07:35:00
2:55 AM,21.2,17.6,86,29.85,10.0,ENE,5.8,-,N/A,,Overcast,70,2012-12-29 07:55:00
3:15 AM,21.2,17.6,86,29.85,10.0,East,4.6,-,N/A,,Overcast,90,2012-12-29 08:15:00
3:35 AM,21.2,17.6,86,29.84,10.0,East,5.8,-,N/A,,Overcast,100,2012-12-29 08:35:00
3:55 AM,21.2,17.6,86,29.83,10.0,East,4.6,-,N/A,,Overcast,100,2012-12-29 08:55:00
4:15 AM,21.2,17.6,86,29.83,3.0,SE,4.6,-,N/A,,Overcast,140,2012-12-29 09:15:00
4:35 AM,21.2,19.4,93,29.82,1.8,SE,5.8,-,N/A,,Overcast,130,2012-12-29 09:35:00
4:55 AM,21.2,19.4,93,29.80,1.2,East,5.8,-,N/A,,Overcast,100,2012-12-29 09:55:00
5:15 AM,21.2,17.6,86,29.78,1.0,ENE,5.8,-,N/A,,Overcast,70,2012-12-29 10:15:00
5:35 AM,21.2,19.4,93,29.76,1.8,ENE,5.8,-,N/A,,Overcast,60,2012-12-29 10:35:00
5:55 AM,21.2,19.4,93,29.73,1.2,ENE,8.1,-,N/A,,Overcast,70,2012-12-29 10:55:00
6:15 AM,21.2,19.4,93,29.73,1.2,ENE,6.9,-,0.01,,Overcast,70,2012-12-29 11:15:00
6:35 AM,21.2,19.4,93,29.72,1.8,East,5.8,-,0.01,,Overcast,90,2012-12-29 11:35:00
7:15 AM,23.0,19.4,86,29.71,1.2,East,4.6,-,N/A,,Overcast,90,2012-12-29 12:15:00
7:35 AM,23.0,19.4,86,29.69,1.2,ENE,6.9,-,N/A,,Overcast,60,2012-12-29 12:35:00
7:55 AM,23.0,21.2,93,29.69,0.8,East,4.6,-,N/A,,Overcast,80,2012-12-29 12:55:00
8:15 AM,23.0,19.4,86,29.69,0.5,East,5.8,-,0.01,,Overcast,90,2012-12-29 13:15:00
8:35 AM,23.0,19.4,86,29.69,0.8,ENE,5.8,-,0.01,,Overcast,70,2012-12-29 13:35:00
8:55 AM,23.0,19.4,86,29.68,0.8,ENE,5.8,-,0.01,,Overcast,60,2012-12-29 13:55:00
9:15 AM,23.0,21.2,93,29.68,0.5,ENE,6.9,-,N/A,,Overcast,60,2012-12-29 14:15:00
9:35 AM,23.0,21.2,93,29.68,0.5,ENE,5.8,-,0.01,,Overcast,60,2012-12-29 14:35:00
9:55 AM,23.0,21.2,93,29.67,0.5,NNE,5.8,-,0.01,,Overcast,20,2012-12-29 14:55:00
10:15 AM,23.0,19.4,86,29.67,1.0,NNE,5.8,-,N/A,,Overcast,20,2012-12-29 15:15:00
10:35 AM,23.0,21.2,93,29.67,3.0,NNE,4.6,-,0.01,,Overcast,20,2012-12-29 15:35:00
10:55 AM,24.8,21.2,86,29.66,0.5,NNE,5.8,-,0.02,,Overcast,30,2012-12-29 15:55:00
11:15 AM,24.8,21.2,86,29.64,1.0,ENE,4.6,-,N/A,,Overcast,60,2012-12-29 16:15:00
11:35 AM,24.8,21.2,86,29.63,0.5,NE,4.6,-,N/A,,Overcast,50,2012-12-29 16:35:00
11:55 AM,24.8,21.2,86,29.62,0.8,NE,4.6,-,N/A,,Overcast,40,2012-12-29 16:55:00
12:15 PM,24.8,21.2,86,29.61,1.0,NE,4.6,-,0.01,,Overcast,40,2012-12-29 17:15:00
12:35 PM,24.8,23.0,93,29.60,1.5,NNE,3.5,-,0.01,,Overcast,20,2012-12-29 17:35:00
12:55 PM,24.8,21.2,86,29.60,2.5,North,4.6,-,0.01,,Overcast,350,2012-12-29 17:55:00
1:15 PM,26.6,21.2,80,29.60,3.0,North,4.6,-,N/A,,Overcast,350,2012-12-29 18:15:00
1:55 PM,26.6,21.2,80,29.60,1.2,North,5.8,-,N/A,,Overcast,350,2012-12-29 18:55:00
2:15 PM,26.6,23.0,86,29.60,0.8,North,6.9,-,N/A,,Overcast,360,2012-12-29 19:15:00
2:35 PM,26.6,24.8,93,29.61,1.0,NNW,8.1,-,N/A,,Overcast,340,2012-12-29 19:35:00
2:55 PM,26.6,23.0,86,29.61,2.0,NNW,9.2,-,N/A,,Overcast,340,2012-12-29 19:55:00
3:15 PM,26.6,21.2,80,29.62,2.5,North,12.7,-,N/A,,Overcast,350,2012-12-29 20:15:00
3:35 PM,24.8,21.2,86,29.63,3.0,North,10.4,-,N/A,,Overcast,360,2012-12-29 20:35:00
3:55 PM,24.8,21.2,86,29.64,2.0,North,10.4,-,N/A,,Overcast,350,2012-12-29 20:55:00
4:15 PM,24.8,21.2,86,29.65,8.0,North,13.8,-,N/A,,Overcast,350,2012-12-29 21:15:00
4:35 PM,24.8,21.2,86,29.66,5.0,North,11.5,18.4,N/A,,Overcast,350,2012-12-29 21:35:00
4:55 PM,24.8,21.2,86,29.67,9.0,North,10.4,-,N/A,,Overcast,350,2012-12-29 21:55:00
5:15 PM,24.8,21.2,86,29.68,5.0,North,11.5,17.3,N/A,,Overcast,350,2012-12-29 22:15:00
5:35 PM,24.8,21.2,86,29.69,5.0,North,15.0,19.6,N/A,,Overcast,360,2012-12-29 22:35:00
5:55 PM,24.8,21.2,86,29.71,3.0,NNW,9.2,19.6,N/A,,Overcast,340,2012-12-29 22:55:00
6:15 PM,24.8,21.2,86,29.72,5.0,NNW,10.4,20.7,N/A,,Overcast,340,2012-12-29 23:15:00
6:35 PM,24.8,21.2,86,29.73,4.0,NNW,13.8,17.3,N/A,,Overcast,330,2012-12-29 23:35:00
6:55 PM,24.8,21.2,86,29.74,6.0,NNW,11.5,18.4,N/A,,Overcast,340,2012-12-29 23:55:00
7:15 PM,24.8,21.2,86,29.75,3.0,NNW,11.5,16.1,N/A,,Overcast,340,2012-12-30 00:15:00
7:35 PM,24.8,21.2,86,29.75,3.0,NNW,11.5,-,N/A,,Overcast,340,2012-12-30 00:35:00
7:55 PM,24.8,21.2,86,29.76,2.0,NNW,10.4,-,N/A,,Overcast,340,2012-12-30 00:55:00
8:15 PM,24.8,21.2,86,29.76,2.5,NNW,6.9,-,N/A,,Overcast,330,2012-12-30 01:15:00
8:35 PM,24.8,21.2,86,29.77,2.5,NNW,10.4,-,N/A,,Overcast,330,2012-12-30 01:35:00
8:55 PM,23.0,19.4,86,29.77,3.0,NNW,12.7,-,N/A,,Overcast,340,2012-12-30 01:55:00
9:15 PM,23.0,19.4,86,29.78,5.0,NNW,11.5,18.4,N/A,,Overcast,340,2012-12-30 02:15:00
9:35 PM,23.0,19.4,86,29.79,9.0,NNW,9.2,-,N/A,,Overcast,340,2012-12-30 02:35:00
9:55 PM,23.0,19.4,86,29.80,9.0,NNW,8.1,-,N/A,,Overcast,330,2012-12-30 02:55:00
10:15 PM,23.0,19.4,86,29.80,10.0,NNW,8.1,-,N/A,,Overcast,330,2012-12-30 03:15:00
10:35 PM,23.0,19.4,86,29.81,9.0,NW,6.9,-,N/A,,Overcast,320,2012-12-30 03:35:00
10:55 PM,23.0,19.4,86,29.81,9.0,NNW,6.9,-,N/A,,Overcast,330,2012-12-30 03:55:00
11:15 PM,23.0,19.4,86,29.82,6.0,NW,5.8,-,N/A,,Overcast,320,2012-12-30 04:15:00
11:35 PM,23.0,19.4,86,29.82,4.0,NW,4.6,-,N/A,,Overcast,310,2012-12-30 04:35:00
11:55 PM,23.0,19.4,86,29.83,6.0,WNW,9.2,-,N/A,,Overcast,300,2012-12-30 04:55:00